{"data":{"norad_id":84932,"intl_designator":"","name":"UNKNOWN","alt_names":[],"object_type":"UNKNOWN","status":"UNKNOWN","operator":null,"country":null,"launch_date":null,"launch_site_code":null,"launch_vehicle":null,"mission":null,"orbit_class":"UNKNOWN","rcs_meters":null,"size_class":null,"mass_kg":null,"dimensions":null,"purposes":[],"wikipedia_slug":null,"has_3d_model":false,"image_url":null,"decayed_at":null,"tle_current":{"epoch":"2026-09-18T10:41:59.146944Z","epoch_age_seconds":195829,"freshness":"STALE","line1":"1 84932U          26261.44582346 -.00000458  00000+0 -45298-2 0  9997","line2":"2 84932   2.1859  80.0450 6553785  10.0081 162.4555  3.00189499140184","mean_motion":3.00189499,"eccentricity":0.6553785,"inclination_deg":2.1859,"raan_deg":80.045,"arg_perigee_deg":10.0081,"mean_anomaly_deg":162.4555,"bstar":-0.0045298,"rev_number":14018,"period_min":479.69699299841,"perigee_km":617.2843645948,"apogee_km":27224.148769724,"semimajor_km":20298.853567159,"source":"CELESTRAK","updated_at":"2026-09-20T09:00:32.444080Z"}}}